EUTELSAT 21B

Last updated on Tue Sep 22 2026 00:03:12 GMT+0000 (Coordinated Universal Time)

1 38992U 12062B 26264.27950975 .00000126 00000+0 00000+0 0 9993 2 38992 0.0703 4.4606 0002909 173.2716 304.6591 1.00273603 50791
UTC large
Height (km)
Speed (km/s)
/
Latitude / Longitude
Inclination (degrees)
Orbital Period (minutes)
Azimuth
Elevation
Range (km)
Doppler Factor

Next 0 passes for location: London (51.5072 / 0.1276)

No passes found over London.
EUTELSAT 21B